User: anonymous   Login
Location: Caltech
(34.1382°N, 118.1253°W)
Time: 14:25:27
(UTC-07:00)
Language:

Cosmos 1626 - Orbit

View from above orbital plane
View from above orbital plane
View from above satellite
View from above satellite

Ground track
Ground track

The orbit data is extracted from the following two-line orbital elements,

1 15494U 85009A   18173.71857947  .00000742  00000-0  29991-4 0  9990
2 15494  82.4799 238.7551 0002580 155.7186 204.4173 15.23176815825165
Epoch (UTC): 22 June 2018 17:14:45
Eccentricity: 0.0002580
inclination: 82.4799°
perigee height: 494 km
apogee height: 498 km
right ascension of ascending node: 238.7551°
argument of perigee: 155.7186°
revolutions per day: 15.23176815
mean anomaly at epoch: 204.4173°
orbit number at epoch: 82516

The dashed part of the orbit path shows where the satellite is in the earth's shadow,  

DLR